[[{"header":{"parameterUnit":"m.s-1","parameterCategory":2,"la1":30.2991,"la2":30.254,"lo1":-89.0895,"lo2":-89.0444,"dy":0.0017,"dx":0.0017,"nx":28,"ny":28,"refTime":"2024-06-25T09:00:00:Z","depth":"0","parameterNumber":2,"parameterNumberName":"U-component_of_CURRENTS"},"data":[0,0,0,0,0,0,0,0,0,0,0,0,0,0,0,0,0,0,0,0,0,0,0,0,0,0,0,0,0,0,0,0,0,0,0,0,0,0,0,0,0,0,0,0,0,0,0,0,0,0,0,0,0,0,0,0,0,0,-0.1712,-0.1712,0,-0.1698,-0.1698,-0.1698,-0.1647,-0.1646,-0.1644,-0.1643,-0.1584,-0.1583,-0.1583,0,0,0,0,0,0,0,0,0,0,0,0,0,-0.1809,-0.1807,-0.1712,-0.1712,-0.1712,-0.1698,-0.1698,-0.1698,-0.1647,-0.1646,-0.1644,-0.1643,-0.1584,-0.1583,-0.1583,0,0,0,0,0,0,0,0,0,0,0,0,0,-0.1779,-0.1806,-0.1712,-0.1684,-0.1681,-0.1698,-0.1698,-0.1698,-0.1648,-0.1646,-0.1644,-0.1642,-0.1584,-0.1583,-0.1583,-0.1618,0,0,-0.1581,-0.1581,0,0,0,0,0,0,0,0,-0.1781,-0.1776,-0.1688,-0.1686,-0.1683,-0.1671,-0.171,-0.1668,-0.1648,-0.1662,-0.1643,-0.1641,-0.1609,-0.1606,-0.1611,-0.1615,-0.1612,-0.1581,-0.158,-0.158,-0.158,0,0,0,0,0,0,0,-0.1783,-0.1777,-0.1708,-0.1688,-0.1685,-0.171,-0.1703,-0.1703,-0.1647,-0.166,-0.1656,-0.1653,-0.1607,-0.1611,-0.1609,-0.1612,-0.1581,-0.158,-0.158,-0.158,-0.1698,-0.1702,0,0,0,0,0,0,-0.1777,-0.1778,-0.1709,-0.1708,-0.1726,-0.1709,-0.1701,-0.1678,-0.1648,-0.1641,-0.1655,-0.1651,-0.1613,-0.1609,-0.1606,-0.166,-0.158,-0.158,-0.1579,-0.1695,-0.1699,-0.1703,0,0,0,0,0,0,-0.1779,-0.1771,-0.1709,-0.1743,-0.1736,-0.1709,-0.1683,-0.1679,-0.1667,-0.1643,-0.1636,-0.1645,-0.1612,-0.1607,-0.1629,-0.1656,-0.1579,-0.1579,-0.1691,-0.1696,-0.1701,-0.1757,0,0,0,0,0,0,-0.1782,-0.1771,-0.1758,-0.1742,-0.1734,-0.1715,-0.1685,-0.168,-0.1668,-0.1662,-0.1634,-0.1627,-0.161,-0.1631,-0.1629,-0.1654,-0.1578,-0.1686,-0.1693,-0.1699,-0.1751,-0.1764,-0.1775,0,0,0,0,0,-0.1785,-0.1767,-0.1757,-0.1749,-0.1714,-0.1715,-0.1714,-0.169,-0.1669,-0.1671,-0.1674,-0.1627,-0.1671,-0.1633,-0.163,-0.1655,-0.1683,-0.1691,-0.1699,-0.1746,-0.1761,-0.1775,0,0,0,0,0,0,-0.1813,-0.176,-0.1748,-0.1718,-0.1717,-0.1705,-0.1699,-0.1691,-0.1695,-0.1684,-0.1663,-0.1659,-0.1696,-0.1681,-0.1639,-0.1718,-0.1673,-0.1681,-0.171,-0.1724,-0.1736,-0.1717,-0.1578,0,0,0,0,0,-0.1813,-0.1774,-0.1756,-0.1736,-0.1728,-0.1716,-0.1713,-0.1702,-0.1701,-0.1698,-0.1689,-0.1698,-0.1733,-0.1728,-0.175,-0.1778,-0.1768,-0.1801,-0.1813,-0.1823,-0.1812,-0.1866,-0.188,-0.1729,-0.1729,-0.1729,0,0,-0.1821,-0.1786,-0.1768,-0.1739,-0.1728,-0.173,-0.1709,-0.17,-0.1716,-0.1694,-0.1711,-0.1736,-0.1756,-0.1802,-0.1816,-0.1782,-0.1862,-0.1833,-0.184,-0.1824,-0.1875,-0.1889,-0.1902,-0.1734,-0.1733,-0.1732,0,0,-0.1808,-0.1784,-0.1743,-0.1746,-0.1726,-0.1735,-0.1732,-0.1726,-0.1731,-0.1763,-0.1773,-0.1822,-0.1836,-0.1876,-0.1895,-0.1988,-0.1933,-0.1991,-0.2014,-0.2068,-0.2079,-0.2089,-0.2083,-0.2092,-0.1984,-0.1984,-0.1984,0,-0.1826,-0.1767,-0.1744,-0.1721,-0.1728,-0.1735,-0.1732,-0.1754,-0.1766,-0.1788,-0.1771,-0.1869,-0.1879,-0.1965,-0.1999,-0.201,-0.2005,-0.1948,-0.2078,-0.2088,-0.2097,-0.2089,-0.2098,-0.1988,-0.1987,-0.1987,-0.1987,0,-0.1779,-0.1753,-0.1737,-0.1708,-0.1726,-0.1727,-0.1756,-0.1779,-0.1794,-0.1823,-0.1903,-0.195,-0.2,-0.2032,-0.2032,-0.2121,-0.2084,-0.2093,-0.2028,-0.2115,-0.2101,-0.211,-0.1993,-0.1992,-0.1991,-0.199,0,0,-0.1773,-0.1711,-0.1711,-0.1701,-0.172,-0.1731,-0.1775,-0.1822,-0.185,-0.1903,-0.195,-0.2051,-0.2073,-0.21,-0.2133,-0.2177,-0.224,-0.215,-0.2151,-0.2117,-0.2309,-0.2149,-0.2141,-0.2263,-0.2265,-0.2267,-0.2266,0,-0.1749,-0.1694,-0.1686,-0.1693,-0.1681,-0.1726,-0.1772,-0.1828,-0.1876,-0.193,-0.2016,-0.2074,-0.2103,-0.2125,-0.2189,-0.2226,-0.2267,-0.2236,-0.2252,-0.2251,-0.2077,-0.2149,-0.1977,-0.195,-0.2274,-0.2275,-0.2276,0,-0.1705,-0.1679,-0.1656,-0.1673,-0.1675,-0.17,-0.1776,-0.1814,-0.191,-0.1944,-0.2031,-0.2081,-0.2177,-0.218,-0.2293,-0.2264,-0.2288,-0.2315,-0.2316,-0.2147,-0.2107,-0.1923,-0.1953,-0.1756,-0.2288,-0.2287,-0.2286,0,-0.1696,-0.1668,-0.1649,-0.1656,-0.1681,-0.17,-0.173,-0.1818,-0.1853,-0.1946,-0.197,-0.2101,-0.2136,-0.2226,-0.2276,-0.2283,-0.2365,-0.2386,-0.2272,-0.2259,-0.2104,-0.2072,-0.1919,-0.2468,-0.2469,-0.2469,-0.2469,0,-0.1672,-0.1664,-0.1636,-0.1635,-0.1644,-0.1677,-0.1712,-0.176,-0.1833,-0.1869,-0.1969,-0.2007,-0.2146,-0.2207,-0.2273,-0.2271,-0.2368,-0.227,-0.2257,-0.2116,-0.2088,-0.19,-0.1967,-0.2468,-0.2468,-0.2468,-0.2468,0,-0.1663,-0.1636,-0.1623,-0.1632,-0.163,-0.1644,-0.1673,-0.1696,-0.1764,-0.1808,-0.1829,-0.1935,-0.1992,-0.2105,-0.2217,-0.222,-0.2193,-0.2247,-0.2033,-0.1993,-0.1667,-0.1749,-0.1796,-0.175,-0.2109,-0.2105,-0.2102,0,-0.1637,-0.1622,-0.1614,-0.1599,-0.1596,-0.1604,-0.1603,-0.1659,-0.1679,-0.1753,-0.1764,-0.1826,-0.1848,-0.1926,-0.196,-0.2013,-0.2054,-0.1858,-0.1852,-0.1603,-0.1689,-0.1811,-0.178,-0.1676,-0.167,-0.1664,-0.166,0,-0.1616,-0.1617,-0.161,-0.1574,-0.1556,-0.1534,-0.1533,-0.154,-0.1595,-0.1619,-0.163,-0.1643,-0.1675,-0.1623,-0.1656,-0.1686,-0.1737,-0.1745,-0.1576,-0.1402,-0.1448,-0.1407,-0.1688,-0.1613,-0.1618,-0.1621,-0.1624,-0.1626,-0.1603,-0.1598,-0.1577,-0.1547,-0.151,-0.1457,-0.1412,-0.1419,-0.1414,-0.1404,-0.1469,-0.1443,-0.1364,-0.137,-0.131,-0.1077,-0.1412,-0.1035,-0.1174,-0.1329,-0.1228,-0.1356,-0.1209,-0.1211,-0.1213,-0.1215,-0.1217,0,-0.158,-0.157,-0.1541,-0.1481,-0.1407,-0.1406,-0.1351,-0.1291,-0.1237,-0.1245,-0.1223,-0.1147,-0.0958,-0.0851,-0.0613,-0.0494,-0.0567,-0.0499,-0.0613,-0.0627,-0.0749,-0.0653,-0.0269,-0.0269,-0.027,-0.027,-0.027,-0.027,-0.1561,-0.1536,-0.1522,-0.139,-0.133,-0.1197,-0.1143,-0.1065,-0.1039,-0.0942,-0.0907,-0.0904,-0.0679,-0.0423,-0.0063,-0.0055,-0.0096,-0.0196,-0.0285,-0.0281,-0.0339,-0.0395,-0.0302,0.0148,0.0148,-0.003,-0.0032,-0.0033]},{"header":{"parameterUnit":"m.s-1","parameterCategory":2,"la1":30.2991,"la2":30.254,"lo1":-89.0895,"lo2":-89.0444,"dy":0.0017,"dx":0.0017,"nx":28,"ny":28,"refTime":"2024-06-25T09:00:00:Z","depth":"0","parameterNumber":3,"parameterNumberName":"V-component_of_CURRENTS"},"data":[0,0,0,0,0,0,0,0,0,0,0,0,0,0,0,0,0,0,0,0,0,0,0,0,0,0,0,0,0,0,0,0,0,0,0,0,0,0,0,0,0,0,0,0,0,0,0,0,0,0,0,0,0,0,0,0,0,0,-0.0984,-0.0985,0,-0.1106,-0.1108,-0.1109,-0.1171,-0.1171,-0.1171,-0.1171,-0.1124,-0.1123,-0.1122,0,0,0,0,0,0,0,0,0,0,0,0,0,-0.0755,-0.0759,-0.0984,-0.0986,-0.0987,-0.1106,-0.1108,-0.111,-0.1171,-0.1171,-0.1171,-0.1171,-0.1125,-0.1123,-0.1122,0,0,0,0,0,0,0,0,0,0,0,0,0,-0.0864,-0.0761,-0.0984,-0.1032,-0.1037,-0.1106,-0.1108,-0.111,-0.1171,-0.1171,-0.1171,-0.1171,-0.1125,-0.1123,-0.1122,-0.1111,0,0,-0.1116,-0.1115,0,0,0,0,0,0,0,0,-0.0858,-0.0873,-0.1023,-0.1028,-0.1035,-0.1123,-0.101,-0.1102,-0.1171,-0.1121,-0.1171,-0.1171,-0.1108,-0.1107,-0.1134,-0.1108,-0.1106,-0.1116,-0.1115,-0.1114,-0.1113,0,0,0,0,0,0,0,-0.085,-0.0867,-0.1033,-0.1025,-0.1032,-0.103,-0.1046,-0.1028,-0.111,-0.1125,-0.113,-0.1143,-0.111,-0.1136,-0.1132,-0.1106,-0.1116,-0.1114,-0.1113,-0.1112,-0.1073,-0.1073,0,0,0,0,0,0,-0.0838,-0.0861,-0.1029,-0.1037,-0.0944,-0.1034,-0.1052,-0.1095,-0.1114,-0.1118,-0.1142,-0.1145,-0.1139,-0.1135,-0.1131,-0.1157,-0.1114,-0.1112,-0.1111,-0.1073,-0.1073,-0.1073,0,0,0,0,0,0,-0.0833,-0.0853,-0.1024,-0.0949,-0.097,-0.1039,-0.1086,-0.1098,-0.1128,-0.1129,-0.113,-0.1161,-0.1139,-0.1133,-0.1129,-0.1153,-0.1111,-0.111,-0.1072,-0.1073,-0.1073,-0.1183,0,0,0,0,0,0,-0.0826,-0.0851,-0.087,-0.0949,-0.0974,-0.1079,-0.1086,-0.11,-0.1135,-0.114,-0.1145,-0.1141,-0.1138,-0.1132,-0.1127,-0.115,-0.1108,-0.1072,-0.1072,-0.1073,-0.1179,-0.1187,-0.1193,0,0,0,0,0,-0.0818,-0.0855,-0.0872,-0.0891,-0.1003,-0.108,-0.1094,-0.114,-0.1136,-0.1164,-0.1161,-0.1141,-0.1128,-0.1131,-0.1125,-0.1148,-0.1072,-0.1072,-0.1073,-0.1176,-0.1185,-0.1193,0,0,0,0,0,0,-0.0764,-0.0867,-0.0887,-0.0952,-0.1013,-0.1091,-0.1117,-0.1139,-0.1164,-0.1158,-0.1148,-0.1145,-0.1151,-0.1122,-0.1125,-0.1132,-0.1094,-0.1093,-0.1174,-0.1183,-0.119,-0.1219,-0.1107,0,0,0,0,0,-0.076,-0.0817,-0.0903,-0.0952,-0.0985,-0.1045,-0.1077,-0.1112,-0.1146,-0.1159,-0.1159,-0.1147,-0.1147,-0.1143,-0.1134,-0.1136,-0.112,-0.1141,-0.1148,-0.1155,-0.1172,-0.1166,-0.1175,-0.1073,-0.1073,-0.1073,0,0,-0.0746,-0.0812,-0.0841,-0.0943,-0.0992,-0.1066,-0.1066,-0.1125,-0.1181,-0.1143,-0.1193,-0.1171,-0.1151,-0.117,-0.1167,-0.115,-0.1175,-0.1155,-0.1161,-0.1175,-0.1167,-0.1177,-0.1186,-0.1073,-0.1073,-0.1073,0,0,-0.077,-0.0814,-0.0879,-0.0941,-0.1024,-0.1068,-0.1084,-0.1161,-0.119,-0.1229,-0.1217,-0.1214,-0.1206,-0.1217,-0.1215,-0.1245,-0.1212,-0.1224,-0.1291,-0.1285,-0.1294,-0.1302,-0.1304,-0.1311,-0.1229,-0.1229,-0.1229,0,-0.0749,-0.0855,-0.0903,-0.0988,-0.104,-0.1072,-0.115,-0.1194,-0.1254,-0.1272,-0.1251,-0.126,-0.124,-0.1277,-0.1296,-0.1267,-0.1254,-0.1269,-0.1299,-0.1306,-0.1312,-0.1312,-0.1318,-0.1235,-0.1234,-0.1233,-0.1233,0,-0.0835,-0.0918,-0.0959,-0.1083,-0.1137,-0.1205,-0.1274,-0.1311,-0.1324,-0.1358,-0.1383,-0.1365,-0.1367,-0.1359,-0.1344,-0.1378,-0.1352,-0.1312,-0.1289,-0.133,-0.1325,-0.1331,-0.1242,-0.124,-0.1239,-0.1237,0,0,-0.0799,-0.0987,-0.1,-0.1074,-0.1193,-0.1247,-0.1329,-0.1413,-0.1452,-0.1479,-0.1525,-0.1531,-0.15,-0.1494,-0.1464,-0.1466,-0.1503,-0.1416,-0.1413,-0.1439,-0.1498,-0.1403,-0.1399,-0.1467,-0.1469,-0.147,-0.1481,0,-0.0854,-0.1023,-0.1099,-0.1233,-0.1322,-0.1377,-0.145,-0.1514,-0.1542,-0.1585,-0.1576,-0.1592,-0.1559,-0.1545,-0.1553,-0.1511,-0.1519,-0.1504,-0.1435,-0.1434,-0.1362,-0.1402,-0.1275,-0.1267,-0.1486,-0.1487,-0.1487,0,-0.0914,-0.1026,-0.1175,-0.1324,-0.1363,-0.1432,-0.1526,-0.1596,-0.1659,-0.1674,-0.1695,-0.1676,-0.1701,-0.1641,-0.1634,-0.1623,-0.1577,-0.1543,-0.1541,-0.142,-0.1348,-0.1256,-0.1267,-0.0997,-0.1494,-0.1494,-0.1493,0,-0.0872,-0.1065,-0.1181,-0.124,-0.1413,-0.1464,-0.1531,-0.1611,-0.1661,-0.1717,-0.1732,-0.176,-0.1747,-0.1724,-0.1665,-0.1647,-0.164,-0.1596,-0.1476,-0.1469,-0.133,-0.1308,-0.1088,-0.1587,-0.1587,-0.1587,-0.1587,0,-0.0906,-0.0995,-0.1169,-0.124,-0.1345,-0.1453,-0.1542,-0.1604,-0.1682,-0.1739,-0.1759,-0.1789,-0.1761,-0.175,-0.1703,-0.1613,-0.1669,-0.1504,-0.1468,-0.1362,-0.1344,-0.1075,-0.0984,-0.1587,-0.1587,-0.1587,-0.1587,0,-0.0859,-0.0981,-0.1116,-0.1293,-0.134,-0.1405,-0.1548,-0.1616,-0.1675,-0.1746,-0.176,-0.1808,-0.1814,-0.1784,-0.174,-0.1632,-0.1426,-0.1519,-0.1402,-0.1351,-0.096,-0.0883,-0.0777,-0.066,-0.1389,-0.1387,-0.1385,0,-0.0866,-0.0934,-0.112,-0.1197,-0.1282,-0.1396,-0.1484,-0.1593,-0.1666,-0.1758,-0.1793,-0.1816,-0.1862,-0.1774,-0.1628,-0.1536,-0.1366,-0.127,-0.1201,-0.0926,-0.0814,-0.0835,-0.0746,-0.1072,-0.1067,-0.1064,-0.1061,0,-0.0867,-0.0918,-0.103,-0.1182,-0.1291,-0.1415,-0.1541,-0.1593,-0.1718,-0.1782,-0.1869,-0.1909,-0.1828,-0.1695,-0.1518,-0.1394,-0.1055,-0.119,-0.093,-0.0572,-0.0558,-0.043,-0.1085,-0.103,-0.1033,-0.1035,-0.1037,-0.1038,-0.0847,-0.091,-0.1052,-0.1185,-0.1302,-0.1433,-0.1515,-0.1649,-0.176,-0.1874,-0.1918,-0.1991,-0.1692,-0.1466,-0.1286,-0.0709,-0.0871,-0.0492,-0.0436,-0.0494,-0.0324,-0.0913,-0.079,-0.0792,-0.0794,-0.0795,-0.0796,0,-0.0866,-0.0946,-0.1063,-0.1233,-0.1336,-0.1409,-0.1562,-0.1647,-0.1775,-0.1892,-0.1987,-0.1831,-0.1442,-0.1053,-0.0326,0.0036,0.0066,0.0228,0.0274,0.0318,-0.0192,-0.0108,0.0201,0.0201,0.0201,0.0201,0.02,0.02,-0.089,-0.0998,-0.1068,-0.1238,-0.1334,-0.1473,-0.1548,-0.1667,-0.1767,-0.1855,-0.1873,-0.1864,-0.1133,-0.0139,0.0692,0.0791,0.1005,0.0948,0.1012,0.076,0.0699,0.064,0.0747,0.1231,0.1232,0.1529,0.1533,0.1536]}],[{"header":{"parameterUnit":"m.s-1","parameterCategory":2,"la1":30.2991,"la2":30.254,"lo1":-89.0895,"lo2":-89.0444,"dy":0.0017,"dx":0.0017,"nx":28,"ny":28,"refTime":"2024-06-25T09:00:00:Z","depth":"2","parameterNumber":2,"parameterNumberName":"U-component_of_CURRENTS"},"data":[0,0,0,0,0,0,0,0,0,0,0,0,0,0,0,0,0,0,0,0,0,0,0,0,0,0,0,0,0,0,0,0,0,0,0,0,0,0,0,0,0,0,0,0,0,0,0,0,0,0,0,0,0,0,0,0,0,0,-0.1804,-0.1805,0,-0.2099,-0.2103,-0.2108,-0.2387,-0.2389,-0.2391,-0.2393,-0.2544,-0.2546,-0.2548,0,0,0,0,0,0,0,0,0,0,0,0,0,-0.1629,-0.1631,-0.1803,-0.1806,-0.1808,-0.2098,-0.2104,-0.2109,-0.2387,-0.2389,-0.2392,-0.2394,-0.2543,-0.2546,-0.2549,0,0,0,0,0,0,0,0,0,0,0,0,0,-0.1807,-0.1632,-0.1803,-0.1969,-0.1986,-0.2097,-0.2104,-0.2111,-0.2387,-0.239,-0.2393,-0.2395,-0.2543,-0.2546,-0.2549,-0.2509,0,0,-0.2559,-0.256,0,0,0,0,0,0,0,0,-0.1797,-0.1816,-0.1943,-0.1958,-0.1976,-0.2195,-0.2097,-0.2231,-0.2386,-0.2252,-0.2393,-0.2397,-0.2401,-0.2416,-0.2491,-0.2516,-0.2523,-0.2559,-0.2561,-0.2562,-0.2563,0,0,0,0,0,0,0,-0.1784,-0.1805,-0.1937,-0.1944,-0.1965,-0.2079,-0.2108,-0.2127,-0.2316,-0.2264,-0.2281,-0.2286,-0.2412,-0.2487,-0.2495,-0.2525,-0.2559,-0.2562,-0.2564,-0.2565,-0.2514,-0.251,0,0,0,0,0,0,-0.1703,-0.1792,-0.1928,-0.1944,-0.1874,-0.2077,-0.2111,-0.2135,-0.232,-0.2347,-0.2283,-0.2298,-0.248,-0.2491,-0.2501,-0.2517,-0.2562,-0.2565,-0.2567,-0.2517,-0.2513,-0.2509,0,0,0,0,0,0,-0.1699,-0.1713,-0.1915,-0.1861,-0.1893,-0.2074,-0.2101,-0.2139,-0.2258,-0.2333,-0.2362,-0.2365,-0.2483,-0.2496,-0.2552,-0.2522,-0.2567,-0.257,-0.2521,-0.2516,-0.2511,-0.2513,0,0,0,0,0,0,-0.1693,-0.1711,-0.1716,-0.1856,-0.1892,-0.1961,-0.2098,-0.2142,-0.2245,-0.2269,-0.2409,-0.2426,-0.2486,-0.2547,-0.2555,-0.2528,-0.2572,-0.2525,-0.2519,-0.2513,-0.2517,-0.2508,-0.2501,0,0,0,0,0,-0.1686,-0.1687,-0.1716,-0.1732,-0.189,-0.1957,-0.1988,-0.2139,-0.2245,-0.2268,-0.2391,-0.2424,-0.251,-0.2549,-0.2559,-0.2532,-0.2528,-0.252,-0.2513,-0.252,-0.251,-0.2501,0,0,0,0,0,0,-0.1652,-0.1717,-0.1753,-0.1784,-0.1842,-0.1998,-0.204,-0.2144,-0.2272,-0.2317,-0.2422,-0.2443,-0.2447,-0.248,-0.252,-0.2483,-0.2506,-0.2501,-0.2508,-0.2498,-0.2491,-0.2557,-0.2575,0,0,0,0,0,-0.1622,-0.1631,-0.1706,-0.1732,-0.1751,-0.1899,-0.1957,-0.2056,-0.217,-0.2239,-0.2328,-0.2396,-0.2414,-0.2459,-0.2458,-0.2483,-0.2492,-0.245,-0.2442,-0.2436,-0.2487,-0.2487,-0.2486,-0.2485,-0.2485,-0.2485,0,0,-0.1619,-0.1651,-0.1664,-0.172,-0.1796,-0.1834,-0.1949,-0.203,-0.2093,-0.2218,-0.233,-0.2356,-0.2399,-0.2414,-0.2418,-0.246,-0.2418,-0.2427,-0.2423,-0.2479,-0.2479,-0.2481,-0.2482,-0.248,-0.2481,-0.2482,0,0,-0.1608,-0.1636,-0.1638,-0.1663,-0.173,-0.1808,-0.1823,-0.1962,-0.2049,-0.2123,-0.2212,-0.226,-0.2301,-0.236,-0.2386,-0.233,-0.2344,-0.228,-0.2355,-0.2352,-0.2355,-0.2357,-0.2293,-0.2291,-0.232,-0.232,-0.232,0,-0.1609,-0.1626,-0.165,-0.1653,-0.1704,-0.1788,-0.1839,-0.19,-0.2048,-0.2142,-0.2134,-0.2269,-0.2282,-0.2371,-0.2349,-0.2321,-0.2306,-0.2404,-0.2351,-0.2354,-0.2357,-0.2292,-0.229,-0.2319,-0.2319,-0.2319,-0.2319,0,-0.1596,-0.1613,-0.1614,-0.1647,-0.1693,-0.1738,-0.1805,-0.1881,-0.198,-0.2078,-0.2167,-0.2202,-0.2319,-0.227,-0.2309,-0.2339,-0.2307,-0.2312,-0.2398,-0.236,-0.2289,-0.2287,-0.2318,-0.2318,-0.2318,-0.2318,0,0,-0.1606,-0.1612,-0.1613,-0.1652,-0.1711,-0.1765,-0.1834,-0.1966,-0.2079,-0.2134,-0.2263,-0.2288,-0.2359,-0.2388,-0.2411,-0.2422,-0.2376,-0.2397,-0.2397,-0.2375,-0.233,-0.2208,-0.2193,-0.2386,-0.2388,-0.2389,-0.2247,0,-0.1612,-0.1617,-0.1643,-0.1705,-0.1734,-0.1834,-0.1916,-0.2041,-0.2124,-0.2225,-0.2288,-0.2358,-0.2379,-0.2426,-0.2445,-0.2379,-0.2383,-0.2412,-0.2338,-0.2335,-0.2268,-0.2192,-0.1959,-0.1808,-0.2245,-0.2244,-0.2244,0,-0.16,-0.1615,-0.1656,-0.1788,-0.1824,-0.1884,-0.2089,-0.2175,-0.2311,-0.2373,-0.2481,-0.2497,-0.2542,-0.2509,-0.2483,-0.2504,-0.2441,-0.238,-0.2373,-0.2283,-0.2212,-0.1926,-0.1787,-0.2241,-0.2241,-0.2241,-0.2241,0,-0.1599,-0.1651,-0.1701,-0.1721,-0.1848,-0.1957,-0.2085,-0.2256,-0.2337,-0.2462,-0.2468,-0.258,-0.2542,-0.2543,-0.2432,-0.2463,-0.2327,-0.2346,-0.2185,-0.2172,-0.1976,-0.1945,-0.2332,-0.2333,-0.2333,-0.2333,-0.2334,0,-0.1602,-0.1642,-0.1702,-0.1723,-0.1849,-0.1986,-0.2163,-0.2282,-0.2414,-0.2467,-0.2546,-0.2517,-0.2542,-0.2462,-0.2426,-0.227,-0.233,-0.2192,-0.2141,-0.1953,-0.1924,-0.2328,-0.233,-0.2328,-0.2329,-0.233,-0.2331,0,-0.1575,-0.1599,-0.1645,-0.1778,-0.1828,-0.1933,-0.2148,-0.2253,-0.2382,-0.2408,-0.2423,-0.2427,-0.2332,-0.2311,-0.2227,-0.219,-0.2101,-0.2037,-0.1784,-0.1709,-0.1951,-0.1953,-0.1862,-0.1857,-0.1852,-0.1848,-0.1845,0,-0.1556,-0.1561,-0.1634,-0.1648,-0.1704,-0.1872,-0.1981,-0.2201,-0.2273,-0.2324,-0.2284,-0.221,-0.2125,-0.1955,-0.1879,-0.1787,-0.1914,-0.1527,-0.1574,-0.1949,-0.1909,-0.1919,-0.1927,-0.1267,-0.1259,-0.1253,-0.1248,0,-0.1517,-0.1524,-0.1557,-0.1567,-0.1642,-0.1743,-0.1908,-0.1945,-0.2154,-0.2126,-0.2054,-0.1989,-0.1816,-0.161,-0.1499,-0.1419,-0.1541,-0.1398,-0.1835,-0.1442,-0.1382,-0.1346,-0.1374,-0.1193,-0.1198,-0.1202,-0.1205,-0.1207,-0.1474,-0.1468,-0.1482,-0.1501,-0.1548,-0.1602,-0.1686,-0.1795,-0.185,-0.1854,-0.1835,-0.167,-0.1574,-0.1301,-0.1168,-0.1025,-0.1173,-0.1095,-0.1117,-0.1144,-0.1121,-0.106,-0.08,-0.0803,-0.0806,-0.0808,-0.081,0,-0.1428,-0.1427,-0.1421,-0.1439,-0.1438,-0.1508,-0.1609,-0.1657,-0.1656,-0.167,-0.1624,-0.1281,-0.1079,-0.0975,-0.0676,-0.0615,-0.0632,-0.0551,-0.0582,-0.0631,-0.0677,-0.0637,-0.0184,-0.0183,-0.0183,-0.0182,0,0,-0.1406,-0.1387,-0.138,-0.133,-0.1332,-0.1351,-0.1388,-0.139,-0.1427,-0.1339,-0.1228,-0.1286,-0.1082,-0.0774,-0.06,-0.0382,-0.0558,-0.0323,-0.0807,-0.0908,-0.0957,-0.0933,-0.0916,0,0,0,0,0]},{"header":{"parameterUnit":"m.s-1","parameterCategory":2,"la1":30.2991,"la2":30.254,"lo1":-89.0895,"lo2":-89.0444,"dy":0.0017,"dx":0.0017,"nx":28,"ny":28,"refTime":"2024-06-25T09:00:00:Z","depth":"2","parameterNumber":3,"parameterNumberName":"V-component_of_CURRENTS"},"data":[0,0,0,0,0,0,0,0,0,0,0,0,0,0,0,0,0,0,0,0,0,0,0,0,0,0,0,0,0,0,0,0,0,0,0,0,0,0,0,0,0,0,0,0,0,0,0,0,0,0,0,0,0,0,0,0,0,0,0.0204,0.0206,0,0.0443,0.0446,0.045,0.0633,0.0633,0.0634,0.0635,0.083,0.0834,0.0839,0,0,0,0,0,0,0,0,0,0,0,0,0,0.0081,0.0082,0.0204,0.0206,0.0208,0.0442,0.0447,0.0451,0.0632,0.0633,0.0634,0.0635,0.0828,0.0834,0.0839,0,0,0,0,0,0,0,0,0,0,0,0,0,0.0218,0.0083,0.0203,0.0319,0.0331,0.0441,0.0447,0.0452,0.0632,0.0633,0.0634,0.0635,0.0827,0.0833,0.084,0.0861,0,0,0.0861,0.0864,0,0,0,0,0,0,0,0,0.021,0.0224,0.03,0.0311,0.0324,0.0499,0.0475,0.0583,0.0632,0.0529,0.0635,0.0636,0.0707,0.0724,0.0783,0.087,0.0878,0.0861,0.0865,0.0868,0.087,0,0,0,0,0,0,0,0.02,0.0216,0.0309,0.0301,0.0316,0.0418,0.0438,0.0498,0.0617,0.0538,0.0549,0.0558,0.0715,0.0776,0.0788,0.0881,0.0861,0.0867,0.0871,0.0874,0.1003,0.1002,0,0,0,0,0,0,0.0139,0.0205,0.0302,0.0315,0.0256,0.0418,0.0441,0.0451,0.0618,0.0641,0.0557,0.0566,0.0764,0.078,0.0796,0.0785,0.0868,0.0875,0.0879,0.1004,0.1003,0.1002,0,0,0,0,0,0,0.0135,0.0145,0.0292,0.0258,0.0282,0.0416,0.0428,0.0455,0.0519,0.063,0.0656,0.0591,0.0765,0.0786,0.0841,0.0795,0.0878,0.0884,0.1004,0.1003,0.1002,0.0791,0,0,0,0,0,0,0.0131,0.0142,0.0135,0.0253,0.0281,0.0329,0.0426,0.0458,0.0517,0.0531,0.0667,0.0687,0.0768,0.083,0.0848,0.0806,0.0889,0.1005,0.1004,0.1003,0.0799,0.0783,0.077,0,0,0,0,0,0.0126,0.0114,0.0134,0.0145,0.0265,0.0326,0.0351,0.0459,0.0516,0.0526,0.0624,0.0683,0.0835,0.0835,0.0856,0.0815,0.1006,0.1004,0.1003,0.0806,0.0786,0.077,0,0,0,0,0,0,0.0069,0.0133,0.0158,0.0169,0.0221,0.0352,0.0376,0.0446,0.0539,0.0558,0.0676,0.0701,0.0721,0.081,0.0807,0.0853,0.0929,0.0932,0.0773,0.0755,0.0741,0.0749,0.0895,0,0,0,0,0,0.0041,0.0046,0.0117,0.0123,0.0141,0.0254,0.0296,0.0362,0.0453,0.0499,0.0583,0.0678,0.0733,0.0776,0.0836,0.087,0.0943,0.0861,0.0846,0.0833,0.0857,0.0942,0.0937,0.0997,0.0997,0.0997,0,0,0.0022,0.0054,0.0061,0.0109,0.0169,0.0188,0.0286,0.0333,0.0351,0.0498,0.0546,0.0614,0.0727,0.0753,0.0772,0.0823,0.0837,0.0831,0.0818,0.0851,0.094,0.0934,0.0929,0.0996,0.0996,0.0996,0,0,-0.0007,0.0008,0.0009,0.0036,0.009,0.014,0.0139,0.0241,0.0285,0.0325,0.0427,0.0483,0.0576,0.0654,0.0704,0.0654,0.0739,0.0659,0.0609,0.0688,0.0683,0.0681,0.0682,0.0681,0.0671,0.0671,0.067,0,-0.0031,-0.0024,0.0017,0.0023,0.0033,0.0104,0.0103,0.0149,0.0254,0.0291,0.0306,0.0467,0.0533,0.0607,0.0581,0.0617,0.0659,0.0653,0.0666,0.0665,0.0666,0.067,0.0672,0.066,0.0661,0.0662,0.0663,0,-0.0048,-0.0052,-0.0054,-0.0038,-0.0029,-0.0022,0.0016,0.0033,0.0073,0.0147,0.0203,0.0301,0.0416,0.0416,0.048,0.052,0.0538,0.0612,0.0699,0.0647,0.0653,0.0659,0.0645,0.0649,0.0652,0.0655,0,0,-0.0076,-0.0068,-0.0069,-0.0082,-0.0064,-0.0058,-0.007,-0.0034,0.0,0.0054,0.0109,0.0178,0.0259,0.0325,0.0403,0.0469,0.0455,0.0532,0.0541,0.0511,0.0571,0.053,0.0534,0.0529,0.0531,0.0532,0.0541,0,-0.01,-0.0117,-0.0108,-0.0144,-0.0158,-0.0135,-0.0138,-0.01,-0.0059,0.0001,0.0094,0.0163,0.0216,0.0257,0.0326,0.0439,0.0476,0.0443,0.065,0.0655,0.0609,0.0543,0.0605,0.0616,0.0548,0.0549,0.055,0,-0.0115,-0.0133,-0.0168,-0.0194,-0.0195,-0.021,-0.0206,-0.0196,-0.0107,-0.0067,0.002,0.0106,0.0191,0.024,0.0398,0.0372,0.0452,0.0529,0.0534,0.0593,0.0629,0.068,0.0631,0.0561,0.056,0.0559,0.0559,0,-0.0153,-0.0179,-0.0219,-0.0228,-0.0238,-0.0254,-0.0259,-0.0198,-0.0184,-0.0103,-0.0075,0.006,0.0109,0.0248,0.0366,0.0393,0.0526,0.0596,0.0626,0.0621,0.077,0.0776,0.0707,0.0707,0.0707,0.0707,0.0707,0,-0.0186,-0.0218,-0.0239,-0.0261,-0.0304,-0.0292,-0.0303,-0.0283,-0.0226,-0.0199,-0.0103,-0.0067,0.0118,0.0211,0.0341,0.0469,0.0505,0.0603,0.0635,0.0686,0.0684,0.0748,0.0752,0.0707,0.0707,0.0707,0.0707,0,-0.0219,-0.0226,-0.0278,-0.0307,-0.0323,-0.0353,-0.0371,-0.0358,-0.031,-0.0286,-0.0276,-0.0166,-0.0071,0.0083,0.0285,0.0414,0.0559,0.0595,0.0588,0.0618,0.0601,0.0595,0.0647,0.0645,0.0645,0.0644,0.0643,0,-0.0236,-0.0261,-0.0323,-0.0358,-0.038,-0.0417,-0.0431,-0.0409,-0.0401,-0.0348,-0.0341,-0.0266,-0.0199,0.0032,0.0256,0.0445,0.0474,0.0622,0.0705,0.0577,0.0602,0.0598,0.0593,0.0788,0.0788,0.0789,0.0789,0,-0.0279,-0.0293,-0.0338,-0.0407,-0.0452,-0.0498,-0.0523,-0.0535,-0.0499,-0.0481,-0.0451,-0.04,-0.0202,0.0061,0.0292,0.0415,0.06,0.0635,0.0554,0.0776,0.0707,0.0732,0.0724,0.0793,0.0793,0.0793,0.0792,0.0792,-0.031,-0.0349,-0.0397,-0.0463,-0.0515,-0.0566,-0.0593,-0.0614,-0.0621,-0.0557,-0.0507,-0.0287,-0.0082,0.0341,0.0404,0.0538,0.0574,0.0722,0.0723,0.0723,0.0721,0.0654,0.0724,0.0724,0.0723,0.0722,0.0722,0,-0.0345,-0.0384,-0.0448,-0.0523,-0.0575,-0.0595,-0.0638,-0.0633,-0.0654,-0.0523,-0.0457,-0.0048,0.0221,0.0421,0.0669,0.0735,0.0727,0.072,0.0774,0.0773,0.0771,0.0772,0.0788,0.0787,0.0787,0.0786,0,0,-0.0365,-0.0425,-0.0456,-0.0551,-0.0601,-0.0653,-0.0675,-0.0653,-0.0548,-0.0413,-0.0127,0.0115,0.0419,0.0611,0.0645,0.0746,0.0695,0.0703,0.0666,0.0719,0.0713,0.0814,0.0818,0,0,0,0,0]}],[{"header":{"parameterUnit":"m.s-1","parameterCategory":2,"la1":30.2991,"la2":30.254,"lo1":-89.0895,"lo2":-89.0444,"dy":0.0017,"dx":0.0017,"nx":28,"ny":28,"refTime":"2024-06-25T09:00:00:Z","depth":"4","parameterNumber":2,"parameterNumberName":"U-component_of_CURRENTS"},"data":[0,0,0,0,0,0,0,0,0,0,0,0,0,0,0,0,0,0,0,0,0,0,0,0,0,0,0,0,0,0,0,0,0,0,0,0,0,0,0,0,0,0,0,0,0,0,0,0,0,0,0,0,0,0,0,0,0,0,-0.1171,-0.1171,0,-0.1176,-0.1175,-0.1175,-0.1175,-0.1175,-0.1175,-0.1176,-0.1211,-0.1212,-0.1213,0,0,0,0,0,0,0,0,0,0,0,0,0,-0.1116,-0.1117,-0.1171,-0.1171,-0.1172,-0.1176,-0.1175,-0.1175,-0.1175,-0.1175,-0.1176,-0.1176,-0.1211,-0.1212,-0.1213,0,0,0,0,0,0,0,0,0,0,0,0,0,-0.1129,-0.1117,-0.1171,-0.1175,-0.1175,-0.1176,-0.1175,-0.1175,-0.1175,-0.1175,-0.1176,-0.1176,-0.1211,-0.1212,-0.1213,-0.1212,0,0,-0.1216,-0.1217,0,0,0,0,0,0,0,0,-0.1128,-0.113,-0.1174,-0.1175,-0.1175,-0.1178,-0.1169,-0.119,-0.1175,-0.1171,-0.1176,-0.1176,-0.1205,-0.1207,-0.1201,-0.1213,-0.1215,-0.1216,-0.1217,-0.1217,-0.1218,0,0,0,0,0,0,0,-0.1127,-0.113,-0.1169,-0.1174,-0.1175,-0.1161,-0.1163,-0.1172,-0.1184,-0.1172,-0.1173,-0.1179,-0.1205,-0.12,-0.1202,-0.1215,-0.1216,-0.1217,-0.1218,-0.1218,-0.1249,-0.1249,0,0,0,0,0,0,-0.1136,-0.1129,-0.1169,-0.117,-0.1156,-0.1162,-0.1164,-0.1174,-0.1183,-0.1186,-0.1178,-0.1179,-0.1198,-0.1201,-0.1204,-0.1261,-0.1217,-0.1218,-0.1219,-0.1249,-0.1249,-0.1249,0,0,0,0,0,0,-0.1135,-0.114,-0.1169,-0.1152,-0.1155,-0.1163,-0.1174,-0.1174,-0.1192,-0.1188,-0.1191,-0.12,-0.1199,-0.1202,-0.1216,-0.126,-0.1219,-0.122,-0.1249,-0.1249,-0.1249,-0.1339,0,0,0,0,0,0,-0.1133,-0.1139,-0.116,-0.1153,-0.1157,-0.1181,-0.1174,-0.1174,-0.1196,-0.1197,-0.1207,-0.1209,-0.1199,-0.1214,-0.1217,-0.1261,-0.1221,-0.1248,-0.1249,-0.1249,-0.1336,-0.1342,-0.1348,0,0,0,0,0,-0.1131,-0.1154,-0.1161,-0.1166,-0.1182,-0.1182,-0.1182,-0.1185,-0.1197,-0.1204,-0.1204,-0.121,-0.1218,-0.1215,-0.1218,-0.1264,-0.1248,-0.1249,-0.1249,-0.1333,-0.1341,-0.1348,0,0,0,0,0,0,-0.1135,-0.1156,-0.1164,-0.1191,-0.1193,-0.1183,-0.1198,-0.1202,-0.1208,-0.1217,-0.1212,-0.1214,-0.1247,-0.123,-0.1227,-0.1268,-0.1235,-0.1236,-0.1298,-0.1305,-0.1311,-0.1295,-0.1222,0,0,0,0,0,-0.1148,-0.1177,-0.118,-0.1204,-0.1209,-0.121,-0.1217,-0.1218,-0.1219,-0.1223,-0.1229,-0.1233,-0.1246,-0.1255,-0.1257,-0.128,-0.1255,-0.1307,-0.1313,-0.1319,-0.1304,-0.1298,-0.1303,-0.1251,-0.1251,-0.125,0,0,-0.1157,-0.1174,-0.119,-0.1208,-0.1213,-0.1223,-0.1215,-0.1231,-0.1248,-0.1227,-0.1258,-0.1261,-0.1256,-0.1281,-0.1294,-0.1277,-0.1323,-0.132,-0.1325,-0.1306,-0.1299,-0.1304,-0.1309,-0.1251,-0.1251,-0.1251,0,0,-0.1177,-0.1203,-0.1228,-0.1233,-0.125,-0.1249,-0.1262,-0.1264,-0.1278,-0.1298,-0.1295,-0.1315,-0.1328,-0.1333,-0.1338,-0.1375,-0.1358,-0.1384,-0.1406,-0.1402,-0.1406,-0.141,-0.1402,-0.1404,-0.1385,-0.1385,-0.1385,0,-0.1184,-0.1219,-0.1232,-0.1249,-0.1261,-0.1267,-0.1283,-0.1296,-0.1304,-0.1311,-0.1318,-0.1338,-0.1353,-0.1379,-0.1394,-0.1395,-0.1377,-0.1389,-0.1412,-0.1415,-0.1417,-0.1407,-0.1408,-0.1389,-0.1389,-0.1388,-0.1388,0,-0.1212,-0.1242,-0.1256,-0.1285,-0.1297,-0.1313,-0.1328,-0.1348,-0.137,-0.1369,-0.1403,-0.141,-0.1411,-0.1439,-0.1434,-0.1461,-0.144,-0.1428,-0.14,-0.1428,-0.1415,-0.1415,-0.1395,-0.1394,-0.1392,-0.1391,0,0,-0.1207,-0.1266,-0.1272,-0.1285,-0.1319,-0.132,-0.1366,-0.1386,-0.1391,-0.1424,-0.1431,-0.1483,-0.1471,-0.1472,-0.1479,-0.1487,-0.1514,-0.1465,-0.1463,-0.1469,-0.1497,-0.1369,-0.1356,-0.1507,-0.1507,-0.1507,-0.1489,0,-0.1221,-0.1266,-0.1295,-0.1324,-0.1339,-0.1363,-0.1386,-0.1405,-0.1423,-0.1425,-0.1458,-0.1459,-0.1489,-0.1487,-0.1508,-0.1504,-0.1513,-0.1519,-0.1457,-0.1455,-0.1347,-0.1351,-0.1507,-0.1489,-0.1489,-0.1489,-0.1488,0,-0.1229,-0.126,-0.1306,-0.1331,-0.1338,-0.1356,-0.138,-0.1397,-0.1411,-0.142,-0.1439,-0.1438,-0.1472,-0.1478,-0.1505,-0.1504,-0.1503,-0.1504,-0.1503,-0.1343,-0.1324,-0.1448,-0.1487,-0.1487,-0.1487,-0.1487,-0.1487,0,-0.1205,-0.1255,-0.1297,-0.1309,-0.1345,-0.1366,-0.1378,-0.1393,-0.1392,-0.1403,-0.1389,-0.1424,-0.1427,-0.1449,-0.1467,-0.148,-0.1472,-0.1488,-0.1374,-0.1366,-0.1451,-0.1447,-0.1488,-0.1488,-0.1488,-0.1488,-0.1488,0,-0.1195,-0.1217,-0.1287,-0.1301,-0.1314,-0.1343,-0.1342,-0.1356,-0.1356,-0.1323,-0.1372,-0.1342,-0.1416,-0.142,-0.1447,-0.1398,-0.1458,-0.1361,-0.1344,-0.149,-0.1491,-0.1452,-0.1448,-0.1487,-0.1488,-0.1488,-0.1488,0,-0.1149,-0.1209,-0.1241,-0.1295,-0.1306,-0.1307,-0.1312,-0.1293,-0.1308,-0.127,-0.1268,-0.1284,-0.1264,-0.1322,-0.134,-0.1342,-0.1326,-0.1293,-0.1438,-0.1432,-0.1234,-0.1235,-0.1162,-0.1157,-0.1153,-0.1149,-0.1146,0,-0.1123,-0.1148,-0.1223,-0.1238,-0.1264,-0.127,-0.126,-0.1269,-0.1239,-0.1209,-0.1174,-0.1155,-0.1159,-0.109,-0.1164,-0.1186,-0.1185,-0.1193,-0.1222,-0.1205,-0.1197,-0.1204,-0.121,-0.114,-0.1139,-0.1138,-0.1136,0,-0.1059,-0.1111,-0.1143,-0.1182,-0.1193,-0.1182,-0.1168,-0.1132,-0.1116,-0.1141,-0.1029,-0.1001,-0.0963,-0.0981,-0.0996,-0.1022,-0.1201,-0.115,-0.116,-0.1187,-0.1178,-0.1175,-0.1186,-0.1122,-0.1124,-0.1126,-0.1126,0,-0.1004,-0.1016,-0.1079,-0.1093,-0.1118,-0.1084,-0.1084,-0.1021,-0.0986,-0.0953,-0.0905,-0.0893,-0.0912,-0.089,-0.0906,-0.0911,-0.0915,-0.0937,-0.0958,-0.0975,-0.0925,-0.0887,-0.0707,0,0,0,0,0,-0.0929,-0.0943,-0.0972,-0.0989,-0.1019,-0.1024,-0.1014,-0.101,-0.0992,-0.0878,-0.0883,-0.0827,-0.0789,-0.0796,-0.0766,-0.0858,-0.0953,-0.0826,-0.0997,-0.1043,-0.1059,-0.1021,0,0,0,0,0,0,-0.0884,-0.0918,-0.0941,-0.0903,-0.0898,-0.0896,-0.089,-0.0882,-0.0815,-0.0809,-0.0784,-0.0793,-0.0773,-0.0786,-0.075,-0.0759,-0.0856,-0.0832,-0.0831,-0.1033,-0.1048,-0.1062,-0.1028,0,0,0,0,0]},{"header":{"parameterUnit":"m.s-1","parameterCategory":2,"la1":30.2991,"la2":30.254,"lo1":-89.0895,"lo2":-89.0444,"dy":0.0017,"dx":0.0017,"nx":28,"ny":28,"refTime":"2024-06-25T09:00:00:Z","depth":"4","parameterNumber":3,"parameterNumberName":"V-component_of_CURRENTS"},"data":[0,0,0,0,0,0,0,0,0,0,0,0,0,0,0,0,0,0,0,0,0,0,0,0,0,0,0,0,0,0,0,0,0,0,0,0,0,0,0,0,0,0,0,0,0,0,0,0,0,0,0,0,0,0,0,0,0,0,0.0078,0.0079,0,0.0126,0.0127,0.0127,0.017,0.0171,0.0172,0.0173,0.0221,0.0221,0.0222,0,0,0,0,0,0,0,0,0,0,0,0,0,0.0042,0.0042,0.0078,0.0079,0.008,0.0126,0.0127,0.0127,0.017,0.0171,0.0172,0.0173,0.0221,0.0221,0.0222,0,0,0,0,0,0,0,0,0,0,0,0,0,0.0068,0.0042,0.0078,0.0109,0.0113,0.0126,0.0127,0.0127,0.017,0.0171,0.0172,0.0173,0.022,0.0221,0.0222,0.0204,0,0,0.0225,0.0225,0,0,0,0,0,0,0,0,0.0066,0.0069,0.0104,0.0107,0.0111,0.0146,0.0132,0.0154,0.017,0.0145,0.0173,0.0174,0.0197,0.02,0.0202,0.0206,0.0208,0.0225,0.0225,0.0226,0.0226,0,0,0,0,0,0,0,0.0064,0.0067,0.0094,0.0105,0.0109,0.0127,0.0131,0.0136,0.0162,0.0147,0.0151,0.0161,0.0198,0.0201,0.0204,0.0209,0.0225,0.0225,0.0226,0.0226,0.0238,0.0238,0,0,0,0,0,0,0.0062,0.0065,0.0093,0.0096,0.0094,0.0127,0.0132,0.0131,0.0162,0.0168,0.016,0.0163,0.0199,0.0203,0.0205,0.0222,0.0226,0.0226,0.0227,0.0238,0.0238,0.0238,0,0,0,0,0,0,0.006,0.0063,0.0091,0.0085,0.009,0.0126,0.0125,0.0132,0.0144,0.0172,0.0178,0.0167,0.02,0.0204,0.0218,0.0223,0.0227,0.0227,0.0239,0.0238,0.0238,0.0233,0,0,0,0,0,0,0.0059,0.0062,0.0058,0.0084,0.009,0.0102,0.0125,0.0132,0.0149,0.0153,0.0179,0.0185,0.0201,0.0216,0.0218,0.0224,0.0228,0.0239,0.0238,0.0238,0.0233,0.0232,0.0231,0,0,0,0,0,0.0057,0.0049,0.0057,0.0061,0.0084,0.0102,0.0106,0.0135,0.0148,0.015,0.0171,0.0185,0.0216,0.0217,0.0219,0.0226,0.0239,0.0238,0.0238,0.0233,0.0232,0.0231,0,0,0,0,0,0,0.0033,0.0054,0.0063,0.0062,0.0082,0.0111,0.0115,0.0133,0.0149,0.0154,0.018,0.0186,0.0206,0.0208,0.0209,0.0227,0.023,0.023,0.0226,0.0225,0.0224,0.0198,0.0229,0,0,0,0,0,0.0024,0.0022,0.0049,0.0047,0.0056,0.0083,0.0094,0.0113,0.0134,0.0143,0.0161,0.018,0.0203,0.0208,0.0226,0.0225,0.0249,0.0231,0.023,0.023,0.021,0.0263,0.0265,0.0236,0.0236,0.0236,0,0,0.0014,0.0025,0.0025,0.0042,0.0058,0.0064,0.0092,0.0106,0.0109,0.0143,0.0149,0.0181,0.0204,0.0218,0.0225,0.0221,0.0252,0.0229,0.0229,0.0208,0.0263,0.0266,0.0268,0.0236,0.0236,0.0236,0,0,-0.0001,0.0003,0.0001,0.0013,0.0038,0.0049,0.0053,0.0081,0.0092,0.0101,0.0137,0.0169,0.0183,0.0211,0.0225,0.0224,0.0254,0.0229,0.0195,0.0248,0.0251,0.0254,0.03,0.0307,0.0219,0.0219,0.0219,0,-0.0011,-0.0015,0.0004,0.0008,0.0007,0.0041,0.0034,0.005,0.0078,0.0076,0.0101,0.0144,0.0181,0.0199,0.0209,0.0224,0.0252,0.0201,0.0249,0.0252,0.0255,0.0301,0.0309,0.0219,0.0219,0.0219,0.0219,0,-0.0021,-0.0027,-0.0028,-0.002,-0.002,-0.002,0.0001,0.0001,0.0016,0.0035,0.0059,0.0114,0.0132,0.0164,0.0189,0.0222,0.0235,0.0253,0.0253,0.0258,0.0306,0.0314,0.0219,0.0219,0.0219,0.0219,0,0,-0.004,-0.0038,-0.0039,-0.0055,-0.0041,-0.0048,-0.0053,-0.0056,-0.007,-0.0023,-0.0037,0.0041,0.0071,0.0088,0.0136,0.0186,0.0259,0.0221,0.0224,0.0269,0.037,0.0356,0.0364,0.0288,0.0289,0.0289,0.0401,0,-0.0056,-0.0072,-0.0067,-0.0098,-0.0112,-0.0107,-0.0123,-0.012,-0.0109,-0.0112,-0.0047,-0.0028,0.0042,0.0056,0.012,0.021,0.0277,0.0226,0.0355,0.0358,0.0348,0.0372,0.0293,0.0407,0.0409,0.0411,0.0412,0,-0.0067,-0.0084,-0.0116,-0.0162,-0.0169,-0.0184,-0.0231,-0.0235,-0.0224,-0.0215,-0.0182,-0.0137,-0.0068,-0.0001,0.016,0.0121,0.0243,0.0329,0.0336,0.0322,0.0358,0.0399,0.0427,0.0426,0.0424,0.0423,0.0423,0,-0.0101,-0.0127,-0.0166,-0.0175,-0.0207,-0.0238,-0.0258,-0.0266,-0.028,-0.0278,-0.028,-0.0208,-0.016,-0.0023,0.0159,0.0157,0.0345,0.0366,0.0474,0.0475,0.0457,0.0453,0.0502,0.0502,0.0502,0.0502,0.0501,0,-0.0128,-0.016,-0.0187,-0.0208,-0.0272,-0.0279,-0.0335,-0.035,-0.0358,-0.0353,-0.0326,-0.0292,-0.0157,-0.0036,0.0126,0.0316,0.0328,0.0465,0.0501,0.0454,0.0448,0.0465,0.0459,0.0506,0.0505,0.0504,0.0503,0,-0.0152,-0.0164,-0.0215,-0.0264,-0.0286,-0.0329,-0.0379,-0.0405,-0.0414,-0.0409,-0.0408,-0.0349,-0.0195,-0.0044,0.0183,0.0279,0.0458,0.0542,0.047,0.0501,0.0559,0.0551,0.0636,0.0637,0.0637,0.0637,0.0637,0,-0.0164,-0.0188,-0.0255,-0.0289,-0.0313,-0.0371,-0.0403,-0.0429,-0.0435,-0.0407,-0.0391,-0.0289,-0.0213,0.008,0.0222,0.0473,0.0533,0.0588,0.0576,0.0545,0.0572,0.0564,0.0556,0.0638,0.0638,0.0638,0.0638,0,-0.019,-0.021,-0.0253,-0.032,-0.0366,-0.0414,-0.0447,-0.0448,-0.044,-0.0456,-0.0336,-0.0221,-0.006,0.0116,0.0296,0.0491,0.0507,0.0593,0.0593,0.0583,0.0548,0.0573,0.0565,0.0639,0.0639,0.0639,0.0639,0,-0.0206,-0.0239,-0.0288,-0.0348,-0.0404,-0.0421,-0.0444,-0.0412,-0.041,-0.035,-0.0296,-0.0144,-0.0066,0.0131,0.0313,0.046,0.0501,0.0534,0.0538,0.0538,0.0463,0.0402,0.0478,0,0,0,0,0,-0.021,-0.0243,-0.0308,-0.037,-0.0422,-0.0441,-0.0456,-0.0459,-0.0432,-0.0328,-0.0304,-0.0132,0.0092,0.0164,0.0322,0.0299,0.0498,0.0479,0.0532,0.0646,0.0644,0.0569,0,0,0,0,0,0,-0.0214,-0.0268,-0.0304,-0.0367,-0.04,-0.0444,-0.0437,-0.042,-0.0352,-0.0305,-0.0172,-0.0122,0.0103,0.0023,0.032,0.0354,0.04,0.0577,0.0579,0.0647,0.0645,0.0644,0.0566,0,0,0,0,0]}]]